Flag for Norfolk Island Weather past 2 weeks in Kingston, Norfolk Island

Now
73 °F

Scattered clouds.


Feels Like: 75 °F
Forecast: 68 / 77 °F
Wind: 8 mph from Northeast

Location: Norfolk Island Airport

Current Time: Dec 18, 2014 at 3:33:04 PM

Latest Report: Dec 18, 2014 at 2:30 PM


Visibility: N/A

Pressure: 30.01 "Hg

Humidity: 74%

Dew point: 64 °F

Location of KingstonLocation

Historic Weather in Kingston — Graph

°F

Kingston temperature yesterday

Maximum temperature yesterday: 75 °F (at 10:00 AM)
Minimum temperature yesterday: 68 °F (at 5:00 AM)
Average temperature yesterday: 71 °F

Past Weeks' High & Low Weather Summary

 TemperatureHumidityPressure
High77 °F (Dec 11, 2:30 PM)100% (Dec 13, 9:00 PM)30.21 "Hg (Dec 13, 9:00 PM)
Low64 °F (Dec 7, 3:00 AM)47% (Dec 3, 1:30 PM)29.42 "Hg (Dec 16, 2:30 AM)
Average70 °F77%29.96 "Hg
* Reported Dec 3 1:30 PM — Dec 18 2:00 PM, Kingston, Weather by CustomWeather, © 2014

Note: Actual official high and low records may vary slightly from our data, if they occured in-between our weather recording intervals... More about our weather records

Advertising

Kingston weather history for previous 24 hours

 ConditionsComfort  
Time TempWeatherWind HumidityBarometerVisibility
2:00 PM
Dec 18
73 °FScattered clouds.8 mph69%30.01 "HgN/A
1:30 PM73 °FScattered clouds.7 mph69%30.01 "HgN/A
1:00 PM73 °FScattered clouds.6 mph78%30.01 "HgN/A
12:30 PM73 °FScattered clouds.5 mph78%30.01 "HgN/A
12:00 PM73 °FScattered clouds.3 mph78%30.01 "HgN/A
11:30 AM72 °FScattered clouds.8 mph83%30.01 "HgN/A
10:30 AM72 °FScattered clouds.6 mph78%30.01 "HgN/A
9:30 AM73 °FPassing clouds.7 mph74%30.01 "HgN/A
8:30 AM73 °FPassing clouds.2 mph69%30.01 "HgN/A
8:00 AM73 °FPassing clouds.3 mph74%30.01 "HgN/A
7:30 AM72 °FPassing clouds.3 mph78%30.01 "HgN/A
7:00 AM72 °FPassing clouds.5 mph78%29.98 "HgN/A
6:30 AM70 °FSunny.No wind88%29.98 "HgN/A
6:00 AM66 °FSunny.No wind94%29.98 "HgN/A
5:30 AM66 °FSunny.No wind94%29.95 "HgN/A
5:00 AM66 °FSunny.No wind94%29.95 "HgN/A
4:30 AM66 °FClear.No wind94%29.95 "HgN/A
4:00 AM66 °FClear.No wind94%29.92 "HgN/A
3:30 AM66 °FClear.No wind94%29.92 "HgN/A
3:00 AM66 °FClear.No wind94%29.92 "HgN/A
2:30 AM66 °FClear.No wind94%29.92 "HgN/A
2:00 AM66 °FClear.No wind94%29.92 "HgN/A
1:30 AM66 °FClear.No wind94%29.92 "HgN/A
12:30 AM66 °FClear.No wind94%29.95 "HgN/A
12:00 AM66 °FClear.No wind94%29.95 "HgN/A
11:30 PM
Dec 17
68 °FClear.No wind88%29.95 "HgN/A
11:00 PM68 °FClear.No wind88%29.95 "HgN/A
10:30 PM68 °FClear.2 mph88%29.92 "HgN/A
10:00 PM68 °FClear.No wind88%29.92 "HgN/A
9:30 PM68 °FClear.No wind88%29.92 "HgN/A
9:00 PM68 °FClear.No wind88%29.89 "HgN/A
8:30 PM68 °FClear.No wind88%29.89 "HgN/A
8:00 PM70 °FPassing clouds.6 mph83%29.89 "HgN/A
7:30 PM70 °FClear.No wind83%29.86 "HgN/A
7:00 PM70 °FPassing clouds.3 mph83%29.86 "HgN/A
6:30 PM72 °FScattered clouds.6 mph78%29.86 "HgN/A
6:00 PM73 °FPartly sunny.7 mph74%29.83 "HgN/A
5:30 PM73 °FPartly sunny.7 mph74%29.83 "HgN/A
5:00 PM72 °FPartly sunny.8 mph78%29.80 "HgN/A
4:30 PM73 °FPartly sunny.10 mph74%29.80 "HgN/A
4:00 PM75 °FScattered clouds.10 mph69%29.80 "HgN/A
3:30 PM75 °FScattered clouds.12 mph69%29.80 "HgN/A
3:00 PM75 °FScattered showers. Scattered clouds.13 mph69%29.80 "HgN/A
Weather by CustomWeather, © 2014

See weather overviewHow to use our weather pages